�������l�o���
Date,Time,MP-1(��Sv/h),MP-2(��Sv/h),MP-3(��Sv/h),MP-4(��Sv/h),MP-5(��Sv/h),MP-6(��Sv/h),MP-7(��Sv/h),MP-8(��Sv/h),����,����(m/s),���J
2024/04/13,00:00,0.494,0.756,0.478,0.924,0.661,0.311,0.544,0.512,�k�k��,4.7,��
2024/04/13,00:10,0.495,0.756,0.479,0.926,0.660,0.311,0.543,0.511,�k�k��,4.6,��
2024/04/13,00:20,0.495,0.757,0.477,0.925,0.662,0.311,0.544,0.513,�k�k��,4.9,��
2024/04/13,00:30,0.493,0.757,0.477,0.924,0.660,0.311,0.546,0.511,�k�k��,4.6,��
2024/04/13,00:40,0.496,0.757,0.478,0.924,0.660,0.311,0.544,0.512,�k�k��,5.2,��
2024/04/13,00:50,0.496,0.756,0.478,0.926,0.661,0.311,0.543,0.510,�k�k��,4.6,��
2024/04/13,01:00,0.495,0.757,0.478,0.926,0.661,0.310,0.544,0.511,�k�k��,4.8,��
2024/04/13,01:10,0.494,0.755,0.479,0.925,0.662,0.311,0.544,0.511,�k�k��,5.0,��
2024/04/13,01:20,0.496,0.756,0.478,0.926,0.662,0.310,0.544,0.512,�k�k��,4.9,��
2024/04/13,01:30,0.495,0.756,0.478,0.924,0.661,0.310,0.544,0.511,�k�k��,5.4,��
2024/04/13,01:40,0.495,0.755,0.477,0.926,0.660,0.311,0.544,0.511,�k�k��,5.0,��
2024/04/13,01:50,0.495,0.758,0.478,0.925,0.661,0.309,0.544,0.512,�k�k��,5.1,��
2024/04/13,02:00,0.497,0.755,0.477,0.924,0.662,0.311,0.546,0.511,�k�k��,5.6,��
2024/04/13,02:10,0.496,0.755,0.477,0.926,0.661,0.312,0.545,0.511,�k�k��,6.2,��
2024/04/13,02:20,0.495,0.759,0.478,0.926,0.660,0.312,0.545,0.511,�k�k��,6.1,��
2024/04/13,02:30,0.495,0.756,0.478,0.925,0.661,0.310,0.542,0.512,�k�k��,5.8,��
2024/04/13,02:40,0.495,0.755,0.478,0.926,0.661,0.310,0.545,0.512,�k��,6.2,��
2024/04/13,02:50,0.496,0.757,0.478,0.927,0.661,0.311,0.544,0.511,�k��,5.9,��
2024/04/13,03:00,0.496,0.756,0.479,0.923,0.661,0.311,0.543,0.511,�k��,6.2,��
2024/04/13,03:10,0.495,0.755,0.478,0.926,0.663,0.310,0.544,0.512,�k��,6.4,��
2024/04/13,03:20,0.495,0.754,0.476,0.925,0.662,0.310,0.543,0.510,�k��,6.6,��
2024/04/13,03:30,0.495,0.755,0.477,0.925,0.659,0.310,0.545,0.511,�k��,5.8,��
2024/04/13,03:40,0.495,0.756,0.477,0.927,0.660,0.311,0.544,0.512,�k�k��,5.9,��
2024/04/13,03:50,0.495,0.755,0.479,0.925,0.662,0.311,0.544,0.512,�k��,6.4,��
2024/04/13,04:00,0.495,0.756,0.479,0.925,0.660,0.311,0.543,0.512,�k��,7.0,��
2024/04/13,04:10,0.496,0.755,0.479,0.928,0.662,0.310,0.545,0.513,�k�k��,6.8,��
2024/04/13,04:20,0.495,0.756,0.479,0.927,0.660,0.311,0.546,0.512,�k�k��,6.4,��
2024/04/13,04:30,0.495,0.755,0.477,0.922,0.661,0.310,0.544,0.511,�k��,6.5,��
2024/04/13,04:40,0.495,0.756,0.477,0.926,0.662,0.309,0.546,0.512,�k�k��,6.3,��
2024/04/13,04:50,0.495,0.756,0.476,0.924,0.663,0.310,0.546,0.512,�k�k��,6.4,��
2024/04/13,05:00,0.495,0.756,0.478,0.925,0.660,0.311,0.546,0.513,�k�k��,5.5,��
2024/04/13,05:10,0.495,0.756,0.477,0.924,0.661,0.311,0.544,0.512,�k�k��,6.1,��
2024/04/13,05:20,0.496,0.756,0.477,0.926,0.662,0.309,0.546,0.512,�k�k��,6.4,��
2024/04/13,05:30,0.494,0.754,0.478,0.927,0.660,0.310,0.547,0.513,�k�k��,6.0,��
2024/04/13,05:40,0.494,0.756,0.476,0.927,0.660,0.310,0.546,0.512,�k�k��,6.3,��
2024/04/13,05:50,0.493,0.755,0.478,0.926,0.661,0.311,0.545,0.512,�k�k��,6.4,��
2024/04/13,06:00,0.496,0.756,0.478,0.926,0.662,0.311,0.546,0.511,�k�k��,6.2,��
2024/04/13,06:10,0.494,0.756,0.478,0.926,0.661,0.311,0.546,0.512,�k�k��,5.8,��
2024/04/13,06:20,0.493,0.756,0.477,0.924,0.661,0.311,0.546,0.512,�k�k��,6.3,��
2024/04/13,06:30,0.495,0.757,0.477,0.924,0.662,0.311,0.547,0.513,�k�k��,6.1,��
2024/04/13,06:40,0.494,0.757,0.478,0.926,0.660,0.310,0.544,0.512,�k�k��,6.2,��
2024/04/13,06:50,0.495,0.757,0.478,0.925,0.660,0.311,0.545,0.513,�k�k��,6.0,��
2024/04/13,07:00,0.495,0.759,0.479,0.926,0.660,0.310,0.547,0.512,�k�k��,6.4,��
2024/04/13,07:10,0.496,0.758,0.478,0.926,0.661,0.311,0.547,0.511,�k�k��,6.7,��
2024/04/13,07:20,0.495,0.758,0.478,0.926,0.662,0.310,0.547,0.512,�k�k��,5.7,��
2024/04/13,07:30,0.495,0.757,0.479,0.926,0.662,0.309,0.548,0.514,�k�k��,3.9,��
2024/04/13,07:40,0.496,0.756,0.479,0.926,0.661,0.308,0.546,0.513,�k�k��,4.7,��
2024/04/13,07:50,0.496,0.755,0.479,0.928,0.662,0.308,0.545,0.513,�k�k��,4.5,��
2024/04/13,08:00,0.496,0.755,0.478,0.928,0.661,0.309,0.547,0.514,�k,3.6,�L
2024/04/13,08:10,0.496,0.754,0.477,0.925,0.662,0.309,0.546,0.514,�k,3.7,��
2024/04/13,08:20,0.496,0.758,0.477,0.927,0.662,0.310,0.547,0.513,�k,3.7,��
2024/04/13,08:30,0.495,0.757,0.476,0.926,0.663,0.310,0.546,0.513,�k,4.9,��
2024/04/13,08:40,0.495,0.756,0.479,0.926,0.662,0.311,0.545,0.513,�k,5.4,��
2024/04/13,08:50,0.495,0.754,0.480,0.926,0.661,0.310,0.547,0.512,�k�k��,4.9,��
2024/04/13,09:00,0.495,0.757,0.480,0.926,0.660,0.309,0.546,0.510,�k�k��,4.9,��
2024/04/13,09:10,0.496,0.756,0.479,0.926,0.662,0.310,0.547,0.509,�k�k��,5.0,��
2024/04/13,09:20,0.494,0.756,0.479,0.927,0.661,0.310,0.546,0.511,�k�k��,5.1,��
2024/04/13,09:30,0.496,0.758,0.478,0.928,0.662,0.310,0.544,0.511,�k�k��,5.4,��
2024/04/13,09:40,0.497,0.755,0.478,0.927,0.662,0.311,0.545,0.510,�k,5.7,��
2024/04/13,09:50,0.497,0.758,0.477,0.927,0.664,0.310,0.544,0.512,�k,5.8,��
2024/04/13,10:00,0.496,0.759,0.478,0.928,0.662,0.311,0.546,0.512,�k�k��,5.1,��
2024/04/13,10:10,0.497,0.757,0.477,0.926,0.661,0.311,0.546,0.511,�k�k��,5.1,��
2024/04/13,10:20,0.496,0.758,0.477,0.928,0.664,0.310,0.545,0.511,�k,5.7,��
2024/04/13,10:30,0.496,0.760,0.476,0.928,0.663,0.310,0.545,0.511,�k,5.9,��
2024/04/13,10:40,0.495,0.757,0.479,0.929,0.664,0.310,0.546,0.512,�k�k��,5.1,��
2024/04/13,10:50,0.496,0.757,0.478,0.928,0.663,0.311,0.544,0.513,�k,6.3,��
2024/04/13,11:00,0.496,0.760,0.477,0.929,0.665,0.310,0.546,0.511,�k�k��,6.3,��
2024/04/13,11:10,0.496,0.758,0.478,0.928,0.663,0.310,0.545,0.511,�k,5.7,��
2024/04/13,11:20,0.496,0.759,0.479,0.930,0.665,0.310,0.547,0.513,�k�k��,5.6,��
2024/04/13,11:30,0.497,0.758,0.478,0.932,0.665,0.312,0.546,0.512,�k,6.0,��
2024/04/13,11:40,0.496,0.760,0.478,0.930,0.666,0.311,0.545,0.513,�k�k��,5.6,��
2024/04/13,11:50,0.498,0.761,0.478,0.931,0.664,0.311,0.546,0.513,�k�k��,5.9,��
2024/04/13,12:00,0.499,0.760,0.479,0.931,0.664,0.310,0.545,0.513,�k�k��,6.0,��
2024/04/13,12:10,0.497,0.761,0.479,0.930,0.665,0.311,0.545,0.512,�k�k��,5.5,��
2024/04/13,12:20,0.498,0.760,0.479,0.930,0.667,0.312,0.548,0.512,�k�k��,5.4,��
2024/04/13,12:30,0.498,0.760,0.481,0.931,0.667,0.310,0.547,0.512,�k,5.2,��
2024/04/13,12:40,0.498,0.762,0.478,0.930,0.665,0.311,0.546,0.513,�k,4.4,��
2024/04/13,12:50,0.498,0.760,0.478,0.932,0.666,0.311,0.547,0.513,�k��,4.2,��
2024/04/13,13:00,0.499,0.759,0.479,0.931,0.666,0.311,0.546,0.512,�k��,4.5,��
2024/04/13,13:10,0.498,0.760,0.478,0.931,0.666,0.312,0.546,0.512,�k��,4.2,��
2024/04/13,13:20,0.497,0.761,0.481,0.932,0.667,0.310,0.548,0.511,���k��,3.6,��
2024/04/13,13:30,0.498,0.761,0.479,0.933,0.666,0.312,0.547,0.511,�k��,4.3,��
2024/04/13,13:40,0.497,0.759,0.480,0.931,0.667,0.311,0.548,0.514,�k��,5.4,��
2024/04/13,13:50,0.499,0.761,0.479,0.930,0.667,0.311,0.548,0.512,�k��,5.3,��
2024/04/13,14:00,0.497,0.763,0.480,0.929,0.667,0.311,0.546,0.514,�k��,5.4,��
2024/04/13,14:10,0.497,0.761,0.480,0.929,0.668,0.310,0.547,0.513,�k��,5.1,��
2024/04/13,14:20,0.500,0.762,0.481,0.932,0.666,0.313,0.545,0.511,�k��,4.2,��
2024/04/13,14:30,0.499,0.760,0.479,0.929,0.668,0.312,0.547,0.512,�k��,4.2,��
2024/04/13,14:40,0.498,0.761,0.480,0.930,0.668,0.310,0.548,0.511,�k��,3.7,��
2024/04/13,14:50,0.498,0.762,0.480,0.932,0.667,0.311,0.548,0.512,�k��,3.4,��
2024/04/13,15:00,0.499,0.760,0.480,0.932,0.668,0.312,0.545,0.512,���k��,2.8,��
2024/04/13,15:10,0.499,0.762,0.480,0.930,0.670,0.311,0.547,0.513,���k��,3.7,��
2024/04/13,15:20,0.498,0.761,0.478,0.932,0.668,0.310,0.547,0.513,���k��,4.8,��
2024/04/13,15:30,0.497,0.762,0.479,0.930,0.667,0.312,0.548,0.512,��,4.3,��
2024/04/13,15:40,0.499,0.762,0.481,0.932,0.668,0.311,0.548,0.511,��,3.7,��
2024/04/13,15:50,0.498,0.764,0.479,0.933,0.666,0.315,0.549,0.512,���k��,2.8,��
2024/04/13,16:00,0.499,0.762,0.479,0.931,0.667,0.313,0.548,0.512,���k��,2.0,��
2024/04/13,16:10,0.498,0.763,0.481,0.930,0.668,0.312,0.547,0.512,���k��,2.3,��
2024/04/13,16:20,0.498,0.762,0.479,0.929,0.669,0.312,0.548,0.513,�k��,2.8,��
2024/04/13,16:30,0.497,0.763,0.479,0.928,0.667,0.313,0.549,0.513,���k��,1.9,��
2024/04/13,16:40,0.499,0.761,0.479,0.928,0.667,0.313,0.548,0.511,���k��,2.3,��
2024/04/13,16:50,0.495,0.761,0.480,0.930,0.667,0.314,0.547,0.512,��,2.6,��
2024/04/13,17:00,0.498,0.762,0.478,0.931,0.666,0.314,0.547,0.510,��,1.5,��
2024/04/13,17:10,0.499,0.761,0.479,0.931,0.667,0.314,0.547,0.513,���쓌,1.7,��
2024/04/13,17:20,0.498,0.764,0.480,0.931,0.667,0.313,0.548,0.512,���쓌,2.3,��
2024/04/13,17:30,0.499,0.763,0.480,0.930,0.667,0.314,0.548,0.514,���쓌,1.7,��
2024/04/13,17:40,0.499,0.765,0.480,0.931,0.666,0.314,0.547,0.513,�쓌,1.5,��
2024/04/13,17:50,0.500,0.765,0.478,0.935,0.666,0.313,0.546,0.515,�쓌,2.2,��
2024/04/13,18:00,0.501,0.764,0.480,0.933,0.666,0.314,0.546,0.513,��쓌,1.5,��
2024/04/13,18:10,0.499,0.767,0.481,0.933,0.668,0.314,0.546,0.513,��쓌,1.7,��
2024/04/13,18:20,0.499,0.764,0.482,0.933,0.670,0.313,0.546,0.514,��,2.0,��
2024/04/13,18:30,0.499,0.764,0.483,0.933,0.668,0.312,0.547,0.514,��,2.2,��
2024/04/13,18:40,0.499,0.765,0.482,0.931,0.668,0.313,0.547,0.512,��,2.0,��
2024/04/13,18:50,0.500,0.764,0.481,0.933,0.670,0.313,0.547,0.513,��,1.7,��
2024/04/13,19:00,0.500,0.765,0.480,0.933,0.670,0.314,0.548,0.512,��쐼,1.7,��
2024/04/13,19:10,0.500,0.763,0.481,0.933,0.671,0.313,0.547,0.514,��,1.4,��
2024/04/13,19:20,0.500,0.765,0.481,0.934,0.669,0.313,0.547,0.512,��쓌,1.4,��
2024/04/13,19:30,0.499,0.764,0.482,0.932,0.669,0.312,0.548,0.513,��,2.0,��
2024/04/13,19:40,0.499,0.765,0.480,0.932,0.669,0.314,0.547,0.514,��,2.0,��
2024/04/13,19:50,0.499,0.765,0.480,0.933,0.668,0.313,0.547,0.513,��,2.3,��
2024/04/13,20:00,0.500,0.764,0.482,0.933,0.671,0.315,0.548,0.514,��,1.7,��
2024/04/13,20:10,0.499,0.764,0.481,0.931,0.669,0.312,0.548,0.514,��쐼,2.3,��
2024/04/13,20:20,0.499,0.762,0.481,0.934,0.670,0.313,0.546,0.514,��,2.3,��
2024/04/13,20:30,0.501,0.762,0.480,0.933,0.669,0.313,0.548,0.513,��,3.0,��
2024/04/13,20:40,0.500,0.764,0.482,0.933,0.670,0.314,0.547,0.512,��,2.6,��
2024/04/13,20:50,0.498,0.764,0.480,0.931,0.670,0.313,0.548,0.512,��,3.1,��
2024/04/13,21:00,0.500,0.764,0.480,0.932,0.670,0.313,0.547,0.513,��,2.6,��
2024/04/13,21:10,0.499,0.762,0.481,0.932,0.668,0.312,0.546,0.513,��,1.7,��
2024/04/13,21:20,0.498,0.764,0.482,0.933,0.669,0.314,0.546,0.514,��,2.9,��
2024/04/13,21:30,0.500,0.762,0.481,0.932,0.671,0.314,0.547,0.512,��,1.2,��
2024/04/13,21:40,0.499,0.765,0.481,0.933,0.668,0.312,0.546,0.514,��,0.8,��
2024/04/13,21:50,0.498,0.764,0.481,0.934,0.669,0.312,0.545,0.512,��,0.6,��
2024/04/13,22:00,0.500,0.763,0.480,0.932,0.670,0.313,0.547,0.513,-,CALM,��
2024/04/13,22:10,0.499,0.763,0.481,0.931,0.669,0.312,0.546,0.513,�쐼,0.9,��
2024/04/13,22:20,0.499,0.764,0.481,0.935,0.670,0.313,0.546,0.512,-,CALM,��
2024/04/13,22:30,0.500,0.763,0.479,0.932,0.668,0.312,0.546,0.512,-,CALM,��
2024/04/13,22:40,0.498,0.762,0.481,0.932,0.668,0.314,0.547,0.513,-,CALM,��
2024/04/13,22:50,0.498,0.763,0.481,0.932,0.669,0.313,0.546,0.513,-,CALM,��
2024/04/13,23:00,0.499,0.762,0.482,0.932,0.670,0.312,0.547,0.513,-,CALM,��
2024/04/13,23:10,0.499,0.762,0.479,0.935,0.669,0.312,0.546,0.511,-,CALM,��
2024/04/13,23:20,0.499,0.762,0.481,0.932,0.668,0.312,0.547,0.512,���k��,0.6,��
2024/04/13,23:30,0.497,0.763,0.481,0.933,0.668,0.312,0.545,0.513,�쐼,0.6,��
2024/04/13,23:40,0.499,0.764,0.481,0.934,0.670,0.312,0.546,0.512,��쐼,0.9,��
2024/04/13,23:50,0.501,0.763,0.481,0.932,0.669,0.312,0.547,0.513,��,0.9,��
